#timestamp,LO_Frequency,Hit 
1501981215.6,286047001.2,N
1501981235.5,286047000.9,N
1501981255.3,286047000.3,N
1501981275.1,286047001.6,N
1501981295.9,286047001.8,N
1501981315.7,286047001.5,N
1501981335.5,286047002.8,N
1501981355.4,286047005.4,P
1501981375.2,286047003.4,N
1501981395.0,286047005.2,P
1501981395.9,286047005.2,P
1501981415.8,286047001.1,N
1501981435.6,286047001.1,N
1501981455.4,286047001.0,N
1501981475.3,286047002.0,N
1501981495.1,286046999.5,N
1501981515.8,286046999.2,N
1501981535.7,286046996.5,N
1501981555.5,286046998.9,N
1501981575.3,286046997.2,N
1501981595.2,286046997.4,N
1501981615.0,286046997.6,N
1501981615.9,286046997.6,N
1501981635.7,286046996.3,N
1501981655.6,286046995.3,N
1501981675.4,286046997.1,N
1501981695.2,286046997.9,N
1501981715.1,286046996.8,N
1501981716.0,286046996.8,N
1501981735.8,286046996.5,N
1501981755.6,286046998.3,N
1501981775.5,286046998.8,N
1501981795.3,286047001.2,N
1501981815.1,286046999.7,N
1501981835.9,286047002.3,N
1501981855.7,286047004.0,N
1501981875.5,286047002.1,N
1501981895.4,286047000.5,N
1501981915.2,286046996.5,N
1501981935.0,286046996.1,N
1501981935.9,286046996.1,N
1501981955.7,286046998.3,N
1501981975.6,286046999.6,N
1501981995.4,286046997.0,N
1501982015.2,286046995.7,N
1501982035.1,286046995.8,N
1501982036.0,286046995.8,N
1501982055.8,286046999.5,N
1501982075.6,286046997.1,N
1501982095.5,286046998.7,N
1501982115.3,286046999.7,N
1501982135.1,286047000.1,N
1501982155.9,286047001.1,N
1501982175.7,286047000.5,N
1501982195.5,286046999.0,N
1501982215.4,286047000.3,N
1501982235.2,286047002.2,N
1501982255.0,286047002.6,N
1501982255.9,286047002.6,N
1501982275.8,286046998.1,N
1501982295.6,286047000.1,N
1501982315.4,286047002.4,N
1501982335.3,286047001.6,N
1501982355.1,286047000.1,N
1501982375.8,286046999.9,N
1501982395.7,286046998.4,N
1501982415.5,286047000.2,N
1501982435.3,286047000.5,N
1501982455.2,286047000.1,N
1501982475.9,286047002.0,N
1501982495.7,286046999.7,N
1501982515.6,286047001.5,N
1501982535.4,286047001.7,N
1501982555.2,286047002.7,N
1501982575.1,286047002.7,N
1501982576.0,286047002.7,N
1501982595.8,286047000.4,N
1501982615.6,286047001.1,N
1501982635.4,286047001.5,N
1501982655.3,286047002.4,N
1501982675.1,286047000.1,N
1501982695.8,286047000.8,N
1501982715.7,286046999.3,N
1501982735.5,286046999.9,N
1501982755.3,286047001.2,N
1501982775.2,286047001.0,N
1501982795.9,286047002.7,N
1501982815.7,286047004.7,P
1501982835.6,286047004.4,N
1501982855.4,286047001.7,N
1501982875.2,286047002.8,N
1501982895.1,286046999.7,N
1501982896.0,286046999.7,N
1501982915.8,286046999.7,N
1501982935.6,286047002.3,N
1501982955.5,286047002.5,N
1501982975.3,286046999.7,N
1501982995.1,286047001.5,N
1501983015.9,286047001.5,N
1501983035.7,286047002.6,N
1501983055.5,286047001.4,N
1501983075.4,286047002.0,N
1501983095.2,286047001.4,N
1501983115.0,286047002.4,N
1501983115.9,286047002.4,N
1501983135.8,286047002.1,N
1501983155.6,286047005.1,P
1501983175.4,286047003.4,N
1501983195.3,286047001.6,N
1501983215.1,286047001.4,N
1501983216.0,286047001.4,N
1501983235.8,286047003.0,N
1501983255.7,286047003.2,N
1501983275.5,286047002.1,N
1501983295.3,286047001.9,N
1501983315.2,286047004.8,P
1501983335.9,286047001.5,N
1501983355.7,286047000.3,N
1501983375.6,286046999.7,N
1501983395.4,286047002.4,N
1501983415.2,286047002.5,N
1501983435.0,286047000.1,N
1501983436.0,286047000.1,N
1501983455.8,286046999.2,N
1501983475.6,286046999.2,N
1501983495.4,286046997.7,N
1501983515.3,286046996.0,N
1501983535.1,286046995.6,N
1501983555.8,286046997.7,N
1501983575.7,286046999.1,N
1501983595.5,286046996.9,N
1501983615.3,286046998.3,N
1501983635.2,286046998.7,N
1501983655.9,286046997.0,N
1501983675.7,286046997.2,N
1501983695.6,286046997.0,N
1501983715.4,286046999.0,N
1501983735.2,286046996.6,N
1501983755.0,286047002.8,N
1501983756.0,286047002.8,N
1501983775.8,286047003.0,N
1501983795.6,286047004.0,N
1501983815.4,286047002.2,N
1501983835.3,286046999.7,N
1501983855.1,286047006.0,N
1501983875.8,286047001.9,N
1501983895.7,286047002.5,N
1501983915.5,286047003.9,N
1501983935.3,286047004.2,N
1501983955.2,286047002.2,N
1501983975.9,286047002.8,N
1501983995.7,286047004.2,N
1501984015.6,286047000.1,N
1501984035.4,286047001.8,N
1501984055.2,286047003.1,N
1501984075.0,286047004.2,N
1501984076.0,286047004.2,N
1501984095.8,286047005.3,N
1501984115.6,286047003.1,N
1501984135.4,286047004.6,N
1501984155.3,286047003.7,N
1501984175.1,286047007.2,N
1501984195.8,286047005.1,N
1501984215.7,286047002.9,N
1501984235.5,286047003.4,N
1501984255.3,286046999.7,N
1501984275.2,286047001.5,N
1501984295.9,286047001.7,N
1501984315.7,286047004.0,N
1501984335.6,286047001.3,N
1501984355.4,286047005.6,P
1501984375.2,286047002.8,N
1501984395.1,286046999.9,N
1501984396.0,286046999.9,N
1501984415.8,286047000.6,N
1501984435.6,286047002.6,N
1501984455.5,286047001.3,N
1501984475.3,286047002.6,N
1501984495.1,286046999.7,N
1501984515.9,286047001.0,N
1501984535.7,286047000.1,N
1501984555.5,286047004.3,N
1501984575.4,286046998.1,N
1501984595.2,286047001.2,N
1501984615.0,286047004.3,N
1501984615.9,286047004.3,N
1501984635.7,286047001.3,N
1501984655.6,286046999.7,N
1501984675.4,286047002.0,N
1501984695.2,286047000.9,N
1501984715.1,286047002.5,N
1501984716.0,286047002.5,N
1501984735.8,286047004.3,N
1501984755.6,286047001.4,N
1501984775.5,286047003.0,N
1501984795.3,286047003.3,N
